TimeEST,TemperatureF,Dew PointF,Humidity,Sea Level PressureIn,VisibilityMPH,Wind Direction,Wind SpeedMPH,Gust SpeedMPH,PrecipitationIn,Events,Conditions,WindDirDegrees,DateUTC
12:15 AM,42.8,30.2,61,30.19,10.0,North,4.6,-,N/A,,Clear,10,2012-12-12 05:15:00
12:35 AM,42.8,30.2,61,30.19,10.0,North,5.8,-,N/A,,Clear,360,2012-12-12 05:35:00
12:55 AM,42.8,30.2,61,30.19,10.0,North,9.2,-,N/A,,Clear,360,2012-12-12 05:55:00
1:15 AM,42.8,30.2,61,30.19,10.0,North,6.9,-,N/A,,Clear,360,2012-12-12 06:15:00
1:35 AM,42.8,30.2,61,30.19,10.0,North,5.8,-,N/A,,Clear,360,2012-12-12 06:35:00
1:55 AM,41.0,30.2,65,30.20,10.0,North,8.1,-,N/A,,Clear,360,2012-12-12 06:55:00
2:15 AM,41.0,30.2,65,30.20,10.0,North,5.8,-,N/A,,Clear,360,2012-12-12 07:15:00
2:35 AM,41.0,30.2,65,30.19,10.0,North,6.9,-,N/A,,Scattered Clouds,10,2012-12-12 07:35:00
2:55 AM,42.8,30.2,61,30.20,10.0,North,8.1,-,N/A,,Mostly Cloudy,360,2012-12-12 07:55:00
3:15 AM,42.8,30.2,61,30.20,10.0,North,8.1,-,N/A,,Overcast,360,2012-12-12 08:15:00
3:35 AM,42.8,30.2,61,30.20,10.0,NNE,3.5,-,N/A,,Overcast,20,2012-12-12 08:35:00
3:55 AM,42.8,28.4,57,30.21,10.0,North,6.9,-,N/A,,Overcast,10,2012-12-12 08:55:00
4:15 AM,42.8,30.2,61,30.22,10.0,North,6.9,-,N/A,,Overcast,10,2012-12-12 09:15:00
4:35 AM,42.8,30.2,61,30.22,10.0,North,5.8,-,N/A,,Overcast,10,2012-12-12 09:35:00
4:55 AM,42.8,30.2,61,30.23,10.0,North,6.9,-,N/A,,Overcast,360,2012-12-12 09:55:00
5:15 AM,42.8,30.2,61,30.23,10.0,North,4.6,-,N/A,,Overcast,10,2012-12-12 10:15:00
5:35 AM,42.8,30.2,61,30.24,10.0,North,6.9,-,N/A,,Mostly Cloudy,10,2012-12-12 10:35:00
5:55 AM,41.0,30.2,65,30.24,10.0,North,6.9,-,N/A,,Mostly Cloudy,10,2012-12-12 10:55:00
6:15 AM,42.8,30.2,61,30.24,10.0,North,4.6,-,N/A,,Overcast,10,2012-12-12 11:15:00
6:35 AM,41.0,30.2,65,30.24,10.0,NNE,4.6,-,N/A,,Overcast,30,2012-12-12 11:35:00
6:55 AM,42.8,30.2,61,30.26,10.0,North,8.1,-,N/A,,Overcast,10,2012-12-12 11:55:00
7:55 AM,42.8,30.2,61,30.28,10.0,North,5.8,-,N/A,,Overcast,10,2012-12-12 12:55:00
8:50 AM,44.6,32.0,61,30.29,10.0,North,9.2,-,N/A,,Overcast,10,2012-12-12 13:50:00
9:55 AM,44.6,32.0,61,30.30,10.0,NE,10.4,-,N/A,,Overcast,40,2012-12-12 14:55:00
10:55 AM,44.6,32.0,61,30.31,10.0,NE,11.5,26.5,N/A,,Overcast,40,2012-12-12 15:55:00
11:55 AM,46.4,32.0,57,30.29,10.0,NNE,10.4,18.4,N/A,,Overcast,20,2012-12-12 16:55:00
12:45 PM,48.2,32.0,54,30.28,10.0,NNE,8.1,-,N/A,,Overcast,20,2012-12-12 17:45:00
1:55 PM,48.2,30.2,50,30.27,10.0,NNE,8.1,-,N/A,,Overcast,20,2012-12-12 18:55:00
2:55 PM,46.4,35.6,66,30.27,10.0,NNE,5.8,-,N/A,,Overcast,20,2012-12-12 19:55:00
3:55 PM,44.6,37.4,76,30.28,10.0,ENE,3.5,-,N/A,,Overcast,60,2012-12-12 20:55:00
4:55 PM,44.6,35.6,71,30.28,10.0,NNE,5.8,-,N/A,,Overcast,30,2012-12-12 21:55:00
6:55 PM,44.6,33.8,66,30.31,10.0,NE,4.6,-,N/A,,Overcast,40,2012-12-12 23:55:00
8:15 PM,42.8,33.8,70,30.32,10.0,NE,3.5,-,N/A,,Overcast,40,2012-12-13 01:15:00
8:35 PM,42.8,33.8,70,30.31,10.0,NNE,4.6,-,N/A,,Overcast,20,2012-12-13 01:35:00
8:55 PM,42.8,32.0,66,30.32,10.0,NE,3.5,-,N/A,,Overcast,50,2012-12-13 01:55:00
9:15 PM,42.8,32.0,66,30.33,10.0,NNE,3.5,-,N/A,,Overcast,30,2012-12-13 02:15:00
9:35 PM,42.8,32.0,66,30.32,10.0,NE,3.5,-,N/A,,Overcast,50,2012-12-13 02:35:00
9:55 PM,44.6,32.0,61,30.31,10.0,NNE,5.8,-,N/A,,Overcast,30,2012-12-13 02:55:00
10:15 PM,42.8,32.0,66,30.33,10.0,Calm,Calm,-,N/A,,Overcast,0,2012-12-13 03:15:00
10:35 PM,42.8,32.0,66,30.33,10.0,Calm,Calm,-,N/A,,Overcast,0,2012-12-13 03:35:00
10:55 PM,42.8,32.0,66,30.34,10.0,Calm,Calm,-,N/A,,Overcast,0,2012-12-13 03:55:00
11:15 PM,42.8,32.0,66,30.32,10.0,NNE,5.8,-,N/A,,Overcast,20,2012-12-13 04:15:00
11:35 PM,44.6,30.2,57,30.32,10.0,NNE,4.6,-,N/A,,Overcast,30,2012-12-13 04:35:00
11:55 PM,44.6,30.2,57,30.33,10.0,NNE,4.6,-,N/A,,Overcast,30,2012-12-13 04:55:00